Regional Weather Roundup
Issued by NWS Mobile, AL

Home | Current Version | Previous Version | Text Only | Print | Product List | Glossary On
Versions: 1 2 3 4 5 6 7 8 9 10 11 12 13 14 15 16 17 18 19 20 21 22 23 24 25 26 27 28
000
ASUS44 KMOB 240912
RWRMOB
REGIONAL WEATHER ROUNDUP
NATIONAL WEATHER SERVICE MOBILE AL
400 AM CDT SUN JUL 24 2016

NOTE: "FAIR" INDICATES FEW OR NO CLOUDS BELOW 12,000 FEET WITH NO
      SIGNIFICANT WEATHER AND/OR OBSTRUCTIONS TO VISIBILITY.

  * THESE STATIONS ARE PART OF THE UNIVERSITY OF SOUTH ALABAMA
    MESONET AND ARE NOT UNDER NWS OR FAA QUALITY CONTROL.

ALZ061>064-241000-
COASTAL ALABAMA

CITY           SKY/WX    TMP DP  RH WIND       PRES   REMARKS
MOBILE REG APT CLEAR     76  74  93 CALM      29.97S
BROOKLEY FIELD PTCLDY    81  77  88 SW3       29.97S
USA CAMPUS*    NOT AVBL
DOG RIVER*     NOT AVBL


CITY           SKY/WX    TMP DP  RH WIND       PRES   REMARKS
MOUNT VERNON*  NOT AVBL
SARALAND*      NOT AVBL
BAY MINETTE*   NOT AVBL
LOXLEY*        NOT AVBL
ROBERTSDALE*   NOT AVBL
FAIRHOPE*      NOT AVBL
ELBERTA*       NOT AVBL
FOLEY*         NOT AVBL
GRAND BAY*     NOT AVBL
DAUPHIN ISLND* NOT AVBL
BON SCOUR NWR* NOT AVBL
GULF SHORES    PTCLDY    80  77  89 CALM      29.95S

$$

ALZ051>060-241000-
INTERIOR SOUTHWEST AND SOUTH CENTRAL ALABAMA

CITY           SKY/WX    TMP DP  RH WIND       PRES   REMARKS
GREENVILLE     MOCLDY    75  71  87 CALM      29.99R
EVERGREEN      MOCLDY    74  72  93 CALM      29.98S
CASTLEBERRY*   NOT AVBL
ATMORE*        NOT AVBL
DIXIE*         NOT AVBL
ANDALUSIA/OPP  CLEAR     77  73  87 CALM      29.98S
ANDALUSIA*     NOT AVBL
FLORALA APT    PTCLDY    74  71  91 CALM      30.00S
FLORALA*       NOT AVBL

$$

FLZ001>006-241000-
WESTERN FLORIDA PANHANDLE

CITY           SKY/WX    TMP DP  RH WIND       PRES   REMARKS
PENSACOLA      CLEAR     80  74  81 CALM      29.95F
NAS PENSACOLA  PTCLDY    79  73  82 S3        29.94F
MILTON         PTCLDY    74  74 100 CALM      29.97S
WHTNG S FIELD  CLEAR     78  76  93 CALM      29.97S


CITY           SKY/WX    TMP DP  RH WIND       PRES   REMARKS
WALNUT HILL*   NOT AVBL
JAY*           NOT AVBL
DUKE FIELD     PTCLDY    74  72  94 NE1       29.96S
CRESTVIEW      PTCLDY    74  72  93 CALM      29.99S
VALPARAISO     MOCLDY    79  76  91 N2        29.96S
DESTIN         PTCLDY    82  78  88 CALM      29.96S

$$

MSZ076-079-241000-
INTERIOR SOUTHEAST MISSISSIPPI

CITY           SKY/WX    TMP DP  RH WIND       PRES   REMARKS
LEAKESVILLE*   NOT AVBL
AGRICOLA*      NOT AVBL

$$

MARINE OBSERVATIONS

STATION/POSITION TIME  TEMP    WIND        PRES    WAVE
                       AIR SEA DIR/SP/G            HT/PER
                 (UTC) (F)     (DEG/KT/KT) (MB)    (FT/S)
PASCAGOULA       0800   84     160/  3/  5 1013.7F
PETIT BOIS ISLND 0800   83     200/  5/  6 1014.5F
GRAND BAY        0745   83     360/  2     1015.0F
KATRINA CUT      0800   84     220/  7     1014.9F
CEDAR POINT      0800   84     170/  4     1014.2F
E DAUPHIN ISLAND 0800   84     180/  4/  4 1014.0F
MIDDLE BAY LIGHT 0800   84     140/ 11     1013.9F
USCG MOBILE BAY  0800   83 85  130/  5/  7 1014.7F
STATE DOCKS      0800   81 87              1014.2F
MEAHER PARK      0800   80     110/  4     1014.2F
WEEKS BAY        0700   77                   N/A
FORT MORGAN      0800   84     190/  5/  5 1013.8F
12 S ORANGE BCH  0850   85 89  190/ 10/ 12 1014.2F   1/ 5
PENSACOLA BAY    0800   85 88  180/  6/  8 1014.6F
64 S DAUPHIN ISL 0800   84 87  200/  6/  8 1014.0F
67 S FORT MORGAN 0830   83     220/  8     1014.2F

$$

SELECTED LOCATIONS ACROSS THE REGION

CITY           SKY/WX    TMP DP  RH WIND       PRES   REMARKS
NEW ORLEANS    PTCLDY    83  76  79 SW3       29.94S
GULFPORT       CLEAR     79  77  94 CALM      29.93F
PASCAGOULA AP  PTCLDY    75  75 100 CALM      29.95S
PASCAGOULA*    NOT AVBL
HATTIESBURG    PTCLDY    78  75  90 CALM      29.95F
LAUREL         PTCLDY    75  72  88 CALM      29.97S
MERIDIAN       CLEAR     76  73  91 CALM      29.97R
JACKSON        CLEAR     75  73  93 SE3       29.96R
MONTGOMERY     PTCLDY    78  73  84 CALM      29.99R
TROY           CLEAR     73  73 100 CALM      30.00S
KINSTON*       NOT AVBL
GENEVA*        NOT AVBL
ASHFORD*       NOT AVBL
DOTHAN         PTCLDY    75  73  93 CALM      30.02S
PANAMA CITY    CLEAR     77  75  93 CALM      29.96F

$$





USA.gov is the U.S. government's official web portal to all federal, state and local government web resources and services.